Location: Caltech
(34.1382°N, 118.1253°W)
Time: 12:22:10
(UTC-07:00)

TMSAT-1 - Visible Passes

Search period start: 01 May 2016 00:00
Search period end: 11 May 2016 00:00
Orbit: 808 x 813 km, 98.5° (Epoch: 01 May)

Date Brightness Start Highest point End Pass type
(mag) Time Alt. Az. Time Alt. Az. Time Alt. Az.
01 May 9.7 02:56:17 10° NNE 03:00:45 53° ENE 03:00:45 53° ENE visible
01 May 10.8 04:37:56 10° NNW 04:40:52 15° WNW 04:41:55 14° WNW visible
02 May 10.5 02:33:07 10° NNE 02:36:59 32° ENE 02:36:59 32° ENE visible
02 May 10.3 04:13:19 10° NNW 04:17:35 25° WNW 04:18:09 25° WNW visible
03 May 11.2 02:10:23 10° NE 02:13:13 19° E 02:13:13 19° E visible
03 May 9.6 03:49:15 10° N 03:54:12 42° WNW 03:54:22 42° WNW visible
04 May 11.8 01:49:05 10° ENE 01:49:26 10° E 01:49:26 10° E visible
04 May 9.0 03:25:27 10° N 03:30:36 71° WNW 03:30:36 71° WNW visible
05 May 9.3 03:01:55 10° NNE 03:06:49 65° ENE 03:06:49 65° ENE visible
05 May 11.0 04:44:03 10° NW 04:46:28 13° WNW 04:47:59 12° W visible
06 May 10.2 02:38:39 10° NNE 02:43:03 38° E 02:43:03 38° E visible
06 May 10.4 04:19:11 10° NNW 04:23:11 22° WNW 04:24:12 21° W visible
07 May 11.0 02:15:47 10° NE 02:19:16 22° E 02:19:16 22° E visible
07 May 9.8 03:55:01 10° N 03:59:50 37° WNW 04:00:26 35° W visible
08 May 11.6 01:53:49 10° ENE 01:55:29 13° E 01:55:29 13° E visible
08 May 9.1 03:31:09 10° N 03:36:23 63° WNW 03:36:39 62° W visible
09 May 9.1 03:07:33 10° NNE 03:12:52 77° ESE 03:12:52 77° ESE visible
09 May 11.1 04:50:22 10° NW 04:52:04 11° WNW 04:53:44 10° W visible
10 May 9.9 02:44:13 10° NNE 02:49:05 44° E 02:49:05 44° E visible
10 May 10.6 04:25:05 10° NNW 04:28:48 20° WNW 04:30:15 18° W visible
